User: anonymous   Login
Location: Ostrava
(49.8330°N, 18.2830°E)
Time: 00:36:40
(UTC+02:00)
Language:

Cosmos 1766 - Orbit

View from above orbital plane
View from above orbital plane
View from above satellite
View from above satellite

Ground track
Ground track

The orbit data is extracted from the following two-line orbital elements,

1 16881U 86055A   16182.99088971  .00001387  00000-0  84415-4 0  9992
2 16881  82.5049   7.0501 0015124 222.5573 137.4485 15.09561321628445
Epoch (UTC): 30 June 2016 23:46:52
Eccentricity: 0.0015124
inclination: 82.5049°
perigee height: 527 km
apogee height: 548 km
right ascension of ascending node: 7.0501°
argument of perigee: 222.5573°
revolutions per day: 15.09561321
mean anomaly at epoch: 137.4485°
orbit number at epoch: 62844

The dashed part of the orbit path shows where the satellite is in the earth's shadow,  

DLR